Time,TemperatureF,DewpointF,PressureIn,WindDirection,WindDirectionDegrees,WindSpeedMPH,WindSpeedGustMPH,Humidity,HourlyPrecipIn,Conditions,Clouds,dailyrainin,SoftwareType,DateUTC
2013-09-23 00:02:00,71.4,63.9,29.83,ENE,74,4.0,8.0,77,0.00,,,0.01,meteohub,2013-09-23 05:02:00,
2013-09-23 00:07:00,71.4,64.2,29.83,ENE,74,4.0,8.0,78,0.00,,,0.00,meteohub,2013-09-23 05:07:00,
2013-09-23 00:12:00,71.2,64.0,29.83,ENE,74,2.0,8.0,78,0.00,,,0.00,meteohub,2013-09-23 05:12:00,
2013-09-23 00:17:00,71.2,64.0,29.83,ENE,71,2.0,7.0,78,0.00,,,0.00,meteohub,2013-09-23 05:17:00,
2013-09-23 00:22:00,71.2,64.0,29.83,ENE,68,2.0,8.0,78,0.00,,,0.00,meteohub,2013-09-23 05:22:00,
2013-09-23 00:27:00,71.2,64.0,29.83,ENE,67,2.0,8.0,78,0.00,,,0.00,meteohub,2013-09-23 05:27:00,
2013-09-23 00:32:00,71.1,64.2,29.83,ENE,67,0.0,8.0,79,0.00,,,0.00,meteohub,2013-09-23 05:32:00,
2013-09-23 00:37:00,71.1,64.2,29.83,ENE,67,0.0,7.0,79,0.00,,,0.00,meteohub,2013-09-23 05:37:00,
2013-09-23 00:42:00,70.9,64.0,29.83,ENE,67,1.0,4.0,79,0.00,,,0.00,meteohub,2013-09-23 05:42:00,
2013-09-23 00:47:00,70.9,64.0,29.83,ENE,67,2.0,4.0,79,0.00,,,0.00,meteohub,2013-09-23 05:47:00,
2013-09-23 00:52:00,70.7,63.9,29.83,ENE,67,2.0,4.0,79,0.00,,,0.00,meteohub,2013-09-23 05:52:00,
2013-09-23 00:57:00,70.5,64.0,29.83,ENE,67,0.0,4.0,80,0.00,,,0.00,meteohub,2013-09-23 05:57:00,
2013-09-23 01:02:00,70.5,64.0,29.83,ENE,67,3.0,4.0,80,0.00,,,0.00,meteohub,2013-09-23 06:02:00,
2013-09-23 01:07:00,70.5,64.0,29.83,ENE,67,2.0,4.0,80,0.00,,,0.00,meteohub,2013-09-23 06:07:00,
2013-09-23 01:12:00,70.5,64.0,29.83,ENE,67,4.0,5.0,80,0.00,,,0.00,meteohub,2013-09-23 06:12:00,
2013-09-23 01:17:00,70.3,63.9,29.83,ENE,67,2.0,5.0,80,0.00,,,0.00,meteohub,2013-09-23 06:17:00,
2013-09-23 01:22:00,70.2,64.0,29.83,ENE,67,3.0,5.0,81,0.00,,,0.00,meteohub,2013-09-23 06:22:00,
2013-09-23 01:27:00,70.2,63.7,29.83,ENE,67,4.0,5.0,80,0.00,,,0.00,meteohub,2013-09-23 06:27:00,
2013-09-23 01:32:00,70.2,63.7,29.83,ENE,68,4.0,7.0,80,0.00,,,0.00,meteohub,2013-09-23 06:32:00,
2013-09-23 01:37:00,70.2,63.7,29.83,ENE,69,3.0,7.0,80,0.00,,,0.00,meteohub,2013-09-23 06:37:00,
2013-09-23 01:42:00,70.2,63.7,29.83,ENE,70,7.0,7.0,80,0.00,,,0.00,meteohub,2013-09-23 06:42:00,
2013-09-23 01:47:00,70.2,63.7,29.83,ENE,69,3.0,7.0,80,0.00,,,0.00,meteohub,2013-09-23 06:47:00,
2013-09-23 01:52:00,70.0,63.9,29.83,ENE,69,4.0,7.0,81,0.00,,,0.00,meteohub,2013-09-23 06:52:00,
2013-09-23 01:57:00,69.8,64.0,29.83,ENE,69,3.0,7.0,82,0.00,,,0.00,meteohub,2013-09-23 06:57:00,
2013-09-23 02:02:00,69.6,63.9,29.83,ENE,69,3.0,5.0,82,0.00,,,0.00,meteohub,2013-09-23 07:02:00,
2013-09-23 02:07:00,69.4,63.7,29.83,ENE,69,3.0,5.0,82,0.00,,,0.00,meteohub,2013-09-23 07:07:00,
2013-09-23 02:12:00,69.4,63.7,29.83,ENE,67,9.0,9.0,82,0.00,,,0.00,meteohub,2013-09-23 07:12:00,
2013-09-23 02:17:00,69.3,63.5,29.83,ENE,69,5.0,10.0,82,0.00,,,0.00,meteohub,2013-09-23 07:17:00,
2013-09-23 02:22:00,69.3,63.5,29.83,ENE,72,2.0,10.0,82,0.00,,,0.00,meteohub,2013-09-23 07:22:00,
2013-09-23 02:27:00,69.3,63.5,29.83,ENE,69,3.0,10.0,82,0.00,,,0.00,meteohub,2013-09-23 07:27:00,
2013-09-23 02:32:00,69.1,63.7,29.83,ENE,69,2.0,8.0,83,0.00,,,0.00,meteohub,2013-09-23 07:32:00,
2013-09-23 02:37:00,69.1,63.7,29.83,ENE,69,4.0,7.0,83,0.00,,,0.00,meteohub,2013-09-23 07:37:00,
2013-09-23 02:42:00,68.9,63.1,29.83,ENE,65,7.0,8.0,82,0.00,,,0.00,meteohub,2013-09-23 07:42:00,
2013-09-23 02:47:00,68.9,63.1,29.82,ENE,68,5.0,8.0,82,0.00,,,0.00,meteohub,2013-09-23 07:47:00,
2013-09-23 02:52:00,68.9,63.1,29.82,ENE,64,10.0,10.0,82,0.00,,,0.00,meteohub,2013-09-23 07:52:00,
2013-09-23 02:57:00,68.9,63.1,29.82,ENE,64,2.0,11.0,82,0.00,,,0.00,meteohub,2013-09-23 07:57:00,
2013-09-23 03:02:00,68.7,63.0,29.82,ENE,59,5.0,11.0,82,0.00,,,0.00,meteohub,2013-09-23 08:02:00,
2013-09-23 03:07:00,68.7,62.6,29.82,ENE,59,8.0,11.0,81,0.00,,,0.00,meteohub,2013-09-23 08:07:00,
2013-09-23 03:12:00,68.7,62.6,29.82,NE,55,7.0,11.0,81,0.00,,,0.00,meteohub,2013-09-23 08:12:00,
2013-09-23 03:17:00,68.7,62.6,29.82,NE,54,3.0,11.0,81,0.00,,,0.00,meteohub,2013-09-23 08:17:00,
2013-09-23 03:22:00,68.5,62.4,29.82,NE,53,3.0,10.0,81,0.00,,,0.00,meteohub,2013-09-23 08:22:00,
2013-09-23 03:27:00,68.4,62.6,29.82,NE,47,4.0,9.0,82,0.00,,,0.00,meteohub,2013-09-23 08:27:00,
2013-09-23 03:32:00,68.2,62.4,29.82,ENE,59,5.0,8.0,82,0.00,,,0.00,meteohub,2013-09-23 08:32:00,
2013-09-23 03:37:00,68.2,62.4,29.82,ENE,57,5.0,10.0,82,0.00,,,0.00,meteohub,2013-09-23 08:37:00,
2013-09-23 03:42:00,68.2,62.4,29.82,ENE,63,5.0,10.0,82,0.00,,,0.00,meteohub,2013-09-23 08:42:00,
2013-09-23 03:47:00,68.2,62.4,29.82,NE,53,7.0,10.0,82,0.00,,,0.00,meteohub,2013-09-23 08:47:00,
2013-09-23 03:52:00,68.2,62.1,29.81,ENE,59,10.0,11.0,81,0.00,,,0.00,meteohub,2013-09-23 08:52:00,
2013-09-23 03:57:00,68.2,62.1,29.81,ENE,64,9.0,11.0,81,0.00,,,0.00,meteohub,2013-09-23 08:57:00,
2013-09-23 04:02:00,68.2,62.1,29.81,ENE,62,3.0,11.0,81,0.00,,,0.00,meteohub,2013-09-23 09:02:00,
2013-09-23 04:07:00,68.2,62.1,29.82,ENE,71,3.0,11.0,81,0.00,,,0.00,meteohub,2013-09-23 09:07:00,
2013-09-23 04:12:00,68.2,61.7,29.81,ENE,64,8.0,12.0,80,0.00,,,0.00,meteohub,2013-09-23 09:12:00,
2013-09-23 04:17:00,68.4,62.2,29.81,NE,50,1.0,12.0,81,0.00,,,0.00,meteohub,2013-09-23 09:17:00,
2013-09-23 04:22:00,68.4,61.9,29.81,ENE,59,5.0,12.0,80,0.00,,,0.00,meteohub,2013-09-23 09:22:00,
2013-09-23 04:27:00,68.2,61.7,29.82,NE,55,3.0,11.0,80,0.00,,,0.00,meteohub,2013-09-23 09:27:00,
2013-09-23 04:32:00,68.0,61.9,29.82,ENE,59,3.0,11.0,81,0.00,,,0.00,meteohub,2013-09-23 09:32:00,
2013-09-23 04:37:00,67.8,61.7,29.82,ENE,72,4.0,11.0,81,0.00,,,0.00,meteohub,2013-09-23 09:37:00,
2013-09-23 04:42:00,67.8,61.7,29.82,ENE,73,4.0,11.0,81,0.00,,,0.00,meteohub,2013-09-23 09:42:00,
2013-09-23 04:47:00,67.6,61.5,29.82,ENE,78,4.0,11.0,81,0.00,,,0.00,meteohub,2013-09-23 09:47:00,
2013-09-23 04:52:00,67.6,61.5,29.82,ENE,69,5.0,11.0,81,0.00,,,0.00,meteohub,2013-09-23 09:52:00,
2013-09-23 04:57:00,67.6,61.9,29.82,ENE,66,7.0,10.0,82,0.00,,,0.00,meteohub,2013-09-23 09:57:00,
2013-09-23 05:02:00,67.5,61.7,29.82,East,79,1.0,9.0,82,0.00,,,0.00,meteohub,2013-09-23 10:02:00,
2013-09-23 05:07:00,67.5,61.7,29.82,ENE,76,7.0,10.0,82,0.00,,,0.00,meteohub,2013-09-23 10:07:00,
2013-09-23 05:12:00,67.5,61.7,29.82,ENE,70,5.0,10.0,82,0.00,,,0.00,meteohub,2013-09-23 10:12:00,
2013-09-23 05:17:00,67.5,61.3,29.82,ENE,75,4.0,10.0,81,0.00,,,0.00,meteohub,2013-09-23 10:17:00,
2013-09-23 05:22:00,67.5,61.3,29.82,ENE,68,4.0,10.0,81,0.00,,,0.00,meteohub,2013-09-23 10:22:00,
2013-09-23 05:27:00,67.5,61.3,29.82,ENE,78,8.0,10.0,81,0.00,,,0.00,meteohub,2013-09-23 10:27:00,
2013-09-23 05:32:00,67.3,61.5,29.82,ENE,76,8.0,10.0,82,0.00,,,0.00,meteohub,2013-09-23 10:32:00,
2013-09-23 05:37:00,67.3,61.5,29.82,ENE,76,4.0,10.0,82,0.00,,,0.00,meteohub,2013-09-23 10:37:00,
2013-09-23 05:42:00,67.1,61.3,29.83,ENE,78,8.0,10.0,82,0.00,,,0.00,meteohub,2013-09-23 10:42:00,
2013-09-23 05:47:00,67.1,61.3,29.83,ENE,78,8.0,10.0,82,0.00,,,0.00,meteohub,2013-09-23 10:47:00,
2013-09-23 05:52:00,67.3,61.5,29.83,ENE,70,8.0,11.0,82,0.00,,,0.00,meteohub,2013-09-23 10:52:00,
2013-09-23 05:57:00,67.3,61.5,29.83,ENE,59,8.0,11.0,82,0.00,,,0.00,meteohub,2013-09-23 10:57:00,
2013-09-23 06:02:00,67.3,61.5,29.82,NE,56,7.0,12.0,82,0.00,,,0.00,meteohub,2013-09-23 11:02:00,
2013-09-23 06:07:00,67.1,61.2,29.82,ENE,67,8.0,12.0,81,0.00,,,0.00,meteohub,2013-09-23 11:07:00,
2013-09-23 06:12:00,67.1,61.3,29.83,ENE,74,5.0,14.0,82,0.00,,,0.00,meteohub,2013-09-23 11:12:00,
2013-09-23 06:17:00,67.1,61.3,29.83,ENE,59,5.0,14.0,82,0.00,,,0.00,meteohub,2013-09-23 11:17:00,
2013-09-23 06:22:00,66.9,61.2,29.83,ENE,65,1.0,14.0,82,0.00,,,0.00,meteohub,2013-09-23 11:22:00,
2013-09-23 06:27:00,66.7,61.0,29.83,NE,55,4.0,9.0,82,0.00,,,0.00,meteohub,2013-09-23 11:27:00,
2013-09-23 06:32:00,66.7,61.0,29.84,ENE,78,10.0,10.0,82,0.00,,,0.00,meteohub,2013-09-23 11:32:00,
2013-09-23 06:37:00,66.7,61.0,29.84,ENE,71,5.0,10.0,82,0.00,,,0.00,meteohub,2013-09-23 11:37:00,
2013-09-23 06:42:00,66.7,61.0,29.84,ENE,58,4.0,10.0,82,0.00,,,0.00,meteohub,2013-09-23 11:42:00,
2013-09-23 06:47:00,66.7,61.0,29.85,ENE,71,5.0,10.0,82,0.00,,,0.00,meteohub,2013-09-23 11:47:00,
2013-09-23 06:52:00,66.7,61.0,29.85,ENE,69,5.0,9.0,82,0.00,,,0.00,meteohub,2013-09-23 11:52:00,
2013-09-23 06:57:00,66.7,61.0,29.85,ENE,76,5.0,9.0,82,0.00,,,0.00,meteohub,2013-09-23 11:57:00,
2013-09-23 07:02:00,66.7,61.3,29.85,ENE,65,5.0,9.0,83,0.00,,,0.00,meteohub,2013-09-23 12:02:00,
2013-09-23 07:07:00,66.7,61.0,29.85,ENE,61,5.0,10.0,82,0.00,,,0.00,meteohub,2013-09-23 12:07:00,
2013-09-23 07:12:00,66.7,61.0,29.85,ENE,78,7.0,10.0,82,0.00,,,0.00,meteohub,2013-09-23 12:12:00,
2013-09-23 07:17:00,66.9,61.2,29.85,NE,56,4.0,10.0,82,0.00,,,0.00,meteohub,2013-09-23 12:17:00,
2013-09-23 07:22:00,66.9,61.2,29.85,ENE,57,7.0,10.0,82,0.00,,,0.00,meteohub,2013-09-23 12:22:00,
2013-09-23 07:27:00,67.1,61.2,29.85,ENE,75,3.0,10.0,81,0.00,,,0.00,meteohub,2013-09-23 12:27:00,
2013-09-23 07:32:00,67.1,61.3,29.85,ENE,67,3.0,10.0,82,0.00,,,0.00,meteohub,2013-09-23 12:32:00,
2013-09-23 07:37:00,67.3,61.2,29.85,ENE,65,9.0,10.0,81,0.00,,,0.00,meteohub,2013-09-23 12:37:00,
2013-09-23 07:42:00,67.5,61.3,29.85,ENE,57,3.0,12.0,81,0.00,,,0.00,meteohub,2013-09-23 12:42:00,
2013-09-23 07:47:00,67.5,61.3,29.85,ENE,77,5.0,12.0,81,0.00,,,0.00,meteohub,2013-09-23 12:47:00,
2013-09-23 07:52:00,67.6,61.2,29.85,ENE,69,7.0,12.0,80,0.00,,,0.00,meteohub,2013-09-23 12:52:00,
2013-09-23 07:57:00,67.6,61.2,29.85,ENE,59,5.0,11.0,80,0.00,,,0.00,meteohub,2013-09-23 12:57:00,
2013-09-23 08:02:00,67.8,61.3,29.85,ENE,64,9.0,11.0,80,0.00,,,0.00,meteohub,2013-09-23 13:02:00,
2013-09-23 08:07:00,68.2,61.7,29.85,ENE,68,8.0,11.0,80,0.00,,,0.00,meteohub,2013-09-23 13:07:00,
2013-09-23 08:12:00,68.4,61.9,29.85,ENE,74,7.0,10.0,80,0.00,,,0.00,meteohub,2013-09-23 13:12:00,
2013-09-23 08:17:00,68.7,61.9,29.85,ENE,74,7.0,10.0,79,0.00,,,0.00,meteohub,2013-09-23 13:17:00,
2013-09-23 08:22:00,69.1,62.2,29.85,ENE,70,5.0,9.0,79,0.00,,,0.00,meteohub,2013-09-23 13:22:00,
2013-09-23 08:27:00,69.3,62.4,29.85,ENE,74,8.0,11.0,79,0.00,,,0.00,meteohub,2013-09-23 13:27:00,
2013-09-23 08:32:00,69.3,62.4,29.85,ENE,78,3.0,11.0,79,0.00,,,0.00,meteohub,2013-09-23 13:32:00,
2013-09-23 08:37:00,69.4,62.6,29.85,East,91,8.0,11.0,79,0.00,,,0.00,meteohub,2013-09-23 13:37:00,
2013-09-23 08:42:00,69.6,62.8,29.85,ENE,76,11.0,13.0,79,0.00,,,0.00,meteohub,2013-09-23 13:42:00,
2013-09-23 08:47:00,70.0,63.1,29.85,East,90,8.0,13.0,79,0.00,,,0.00,meteohub,2013-09-23 13:47:00,
2013-09-23 08:52:00,70.3,63.5,29.85,ENE,72,7.0,13.0,79,0.00,,,0.00,meteohub,2013-09-23 13:52:00,
2013-09-23 08:57:00,70.3,63.5,29.85,ENE,76,5.0,11.0,79,0.00,,,0.00,meteohub,2013-09-23 13:57:00,
2013-09-23 09:02:00,70.3,63.5,29.85,East,85,8.0,12.0,79,0.00,,,0.00,meteohub,2013-09-23 14:02:00,
2013-09-23 09:07:00,71.1,64.6,29.85,East,82,8.0,12.0,80,0.00,,,0.00,meteohub,2013-09-23 14:07:00,
2013-09-23 09:12:00,71.1,64.2,29.85,East,79,10.0,12.0,79,0.00,,,0.00,meteohub,2013-09-23 14:12:00,
2013-09-23 09:17:00,71.4,64.9,29.85,ENE,62,7.0,11.0,80,0.00,,,0.00,meteohub,2013-09-23 14:17:00,
2013-09-23 09:22:00,72.0,65.5,29.85,East,88,6.0,11.0,80,0.00,,,0.00,meteohub,2013-09-23 14:22:00,
2013-09-23 09:27:00,72.3,65.8,29.85,East,82,7.0,11.0,80,0.00,,,0.00,meteohub,2013-09-23 14:27:00,
2013-09-23 09:32:00,72.7,65.8,29.85,ENE,58,4.0,11.0,79,0.00,,,0.00,meteohub,2013-09-23 14:32:00,
2013-09-23 09:37:00,72.9,66.0,29.85,ENE,77,4.0,9.0,79,0.00,,,0.00,meteohub,2013-09-23 14:37:00,
2013-09-23 09:42:00,73.2,66.7,29.85,ENE,78,5.0,9.0,80,0.00,,,0.00,meteohub,2013-09-23 14:42:00,
2013-09-23 09:47:00,73.8,67.3,29.85,ENE,78,5.0,9.0,80,0.00,,,0.00,meteohub,2013-09-23 14:47:00,
2013-09-23 09:52:00,73.8,67.3,29.85,East,94,7.0,9.0,80,0.00,,,0.00,meteohub,2013-09-23 14:52:00,
2013-09-23 09:57:00,74.1,67.1,29.86,East,86,8.0,9.0,79,0.00,,,0.00,meteohub,2013-09-23 14:57:00,
2013-09-23 10:02:00,74.5,67.8,29.86,ENE,77,7.0,9.0,80,0.00,,,0.00,meteohub,2013-09-23 15:02:00,
2013-09-23 10:07:00,75.2,68.2,29.86,ESE,104,7.0,9.0,79,0.00,,,0.00,meteohub,2013-09-23 15:07:00,
2013-09-23 10:12:00,75.6,68.5,29.85,East,86,8.0,9.0,79,0.00,,,0.00,meteohub,2013-09-23 15:12:00,
2013-09-23 10:17:00,75.7,69.1,29.85,East,80,7.0,10.0,80,0.00,,,0.00,meteohub,2013-09-23 15:17:00,
2013-09-23 10:22:00,76.6,69.6,29.85,East,84,2.0,10.0,79,0.00,,,0.00,meteohub,2013-09-23 15:22:00,
2013-09-23 10:27:00,77.2,70.5,29.85,East,86,5.0,10.0,80,0.00,,,0.00,meteohub,2013-09-23 15:27:00,
2013-09-23 10:32:00,77.2,69.8,29.85,East,89,7.0,10.0,78,0.00,,,0.00,meteohub,2013-09-23 15:32:00,
2013-09-23 10:37:00,77.5,70.5,29.85,ENE,71,4.0,10.0,79,0.00,,,0.00,meteohub,2013-09-23 15:37:00,
2013-09-23 10:42:00,78.4,71.4,29.85,East,83,6.0,10.0,79,0.00,,,0.00,meteohub,2013-09-23 15:42:00,
2013-09-23 10:47:00,78.4,71.1,29.85,East,80,6.0,10.0,78,0.00,,,0.00,meteohub,2013-09-23 15:47:00,
2013-09-23 10:52:00,78.6,71.2,29.85,East,82,6.0,10.0,78,0.00,,,0.00,meteohub,2013-09-23 15:52:00,
2013-09-23 10:57:00,79.5,71.6,29.85,East,94,7.0,10.0,77,0.00,,,0.00,meteohub,2013-09-23 15:57:00,
2013-09-23 11:02:00,79.5,71.6,29.85,ESE,112,1.0,10.0,77,0.00,,,0.00,meteohub,2013-09-23 16:02:00,
2013-09-23 11:07:00,79.5,71.6,29.85,ESE,103,5.0,10.0,77,0.00,,,0.00,meteohub,2013-09-23 16:07:00,
2013-09-23 11:12:00,79.9,72.0,29.85,NE,50,4.0,10.0,77,0.00,,,0.00,meteohub,2013-09-23 16:12:00,
2013-09-23 11:17:00,80.2,72.0,29.85,East,92,6.0,9.0,76,0.00,,,0.00,meteohub,2013-09-23 16:17:00,
2013-09-23 11:22:00,80.2,72.0,29.85,East,94,6.0,10.0,76,0.00,,,0.00,meteohub,2013-09-23 16:22:00,
2013-09-23 11:27:00,80.4,72.5,29.85,ENE,60,8.0,10.0,77,0.00,,,0.00,meteohub,2013-09-23 16:27:00,
2013-09-23 11:32:00,80.2,72.0,29.85,ENE,77,8.0,10.0,76,0.00,,,0.00,meteohub,2013-09-23 16:32:00,
2013-09-23 11:37:00,80.6,72.3,29.85,ENE,76,1.0,9.0,76,0.00,,,0.00,meteohub,2013-09-23 16:37:00,
2013-09-23 11:42:00,81.1,72.9,29.85,East,82,5.0,9.0,76,0.00,,,0.00,meteohub,2013-09-23 16:42:00,
2013-09-23 11:47:00,81.1,72.9,29.85,ENE,76,3.0,9.0,76,0.00,,,0.00,meteohub,2013-09-23 16:47:00,
2013-09-23 11:52:00,81.7,73.4,29.85,ENE,74,0.0,9.0,76,0.00,,,0.00,meteohub,2013-09-23 16:52:00,
2013-09-23 11:57:00,81.9,73.2,29.85,East,90,7.0,9.0,75,0.00,,,0.00,meteohub,2013-09-23 16:57:00,
2013-09-23 12:02:00,82.4,73.8,29.85,East,96,8.0,10.0,75,0.00,,,0.00,meteohub,2013-09-23 17:02:00,
2013-09-23 12:07:00,82.8,73.6,29.85,East,96,7.0,12.0,74,0.00,,,0.00,meteohub,2013-09-23 17:07:00,
2013-09-23 12:12:00,82.6,73.4,29.85,ESE,107,2.0,13.0,74,0.00,,,0.00,meteohub,2013-09-23 17:12:00,
2013-09-23 12:17:00,82.8,73.9,29.85,ESE,119,5.0,13.0,75,0.00,,,0.00,meteohub,2013-09-23 17:17:00,
2013-09-23 12:22:00,83.3,74.1,29.84,SE,132,6.0,13.0,74,0.00,,,0.00,meteohub,2013-09-23 17:22:00,
2013-09-23 12:27:00,83.1,74.3,29.84,SE,132,7.0,11.0,75,0.00,,,0.00,meteohub,2013-09-23 17:27:00,
2013-09-23 12:32:00,83.3,74.1,29.84,East,94,8.0,11.0,74,0.00,,,0.00,meteohub,2013-09-23 17:32:00,
2013-09-23 12:37:00,83.5,74.7,29.84,East,98,9.0,11.0,75,0.00,,,0.00,meteohub,2013-09-23 17:37:00,
2013-09-23 12:42:00,83.3,74.1,29.83,SE,125,7.0,11.0,74,0.00,,,0.00,meteohub,2013-09-23 17:42:00,
2013-09-23 12:47:00,83.7,74.5,29.83,ESE,104,11.0,12.0,74,0.00,,,0.00,meteohub,2013-09-23 17:47:00,
2013-09-23 12:52:00,84.0,74.8,29.83,ESE,114,9.0,12.0,74,0.00,,,0.00,meteohub,2013-09-23 17:52:00,
2013-09-23 12:57:00,84.6,75.4,29.83,ESE,117,8.0,13.0,74,0.00,,,0.00,meteohub,2013-09-23 17:57:00,
2013-09-23 13:02:00,84.0,74.5,29.83,ESE,118,5.0,13.0,73,0.00,,,0.00,meteohub,2013-09-23 18:02:00,
2013-09-23 13:07:00,84.4,75.2,29.83,SE,124,8.0,13.0,74,0.00,,,0.00,meteohub,2013-09-23 18:07:00,
2013-09-23 13:12:00,83.7,74.5,29.83,ESE,119,9.0,11.0,74,0.00,,,0.00,meteohub,2013-09-23 18:12:00,
2013-09-23 13:17:00,83.7,75.2,29.83,SE,136,10.0,10.0,76,0.00,,,0.00,meteohub,2013-09-23 18:17:00,
2013-09-23 13:22:00,84.0,74.5,29.82,ESE,113,8.0,10.0,73,0.00,,,0.00,meteohub,2013-09-23 18:22:00,
2013-09-23 13:27:00,84.0,75.2,29.82,ESE,103,5.0,10.0,75,0.00,,,0.00,meteohub,2013-09-23 18:27:00,
2013-09-23 13:32:00,83.8,74.7,29.82,ESE,115,7.0,10.0,74,0.00,,,0.00,meteohub,2013-09-23 18:32:00,
2013-09-23 13:37:00,83.8,74.7,29.81,SE,140,7.0,10.0,74,0.00,,,0.00,meteohub,2013-09-23 18:37:00,
2013-09-23 13:42:00,83.8,74.7,29.81,ESE,119,9.0,12.0,74,0.00,,,0.00,meteohub,2013-09-23 18:42:00,
2013-09-23 13:47:00,84.2,75.0,29.81,ESE,115,5.0,12.0,74,0.00,,,0.00,meteohub,2013-09-23 18:47:00,
2013-09-23 13:52:00,84.9,75.2,29.81,ESE,121,3.0,12.0,73,0.00,,,0.00,meteohub,2013-09-23 18:52:00,
2013-09-23 13:57:00,84.9,75.2,29.81,East,98,6.0,10.0,73,0.00,,,0.00,meteohub,2013-09-23 18:57:00,
2013-09-23 14:02:00,84.9,75.2,29.81,SE,136,4.0,10.0,73,0.00,,,0.00,meteohub,2013-09-23 19:02:00,
2013-09-23 14:07:00,84.7,75.2,29.80,ESE,122,9.0,10.0,73,0.00,,,0.00,meteohub,2013-09-23 19:07:00,
2013-09-23 14:12:00,84.6,75.0,29.80,ESE,119,1.0,11.0,73,0.00,,,0.00,meteohub,2013-09-23 19:12:00,
2013-09-23 14:17:00,84.9,75.2,29.80,East,91,6.0,11.0,73,0.00,,,0.00,meteohub,2013-09-23 19:17:00,
2013-09-23 14:22:00,84.4,75.2,29.81,ENE,76,3.0,11.0,74,0.00,,,0.00,meteohub,2013-09-23 19:22:00,
2013-09-23 14:27:00,84.4,75.2,29.80,East,82,8.0,10.0,74,0.00,,,0.00,meteohub,2013-09-23 19:27:00,
2013-09-23 14:32:00,84.6,75.4,29.80,East,89,6.0,10.0,74,0.00,,,0.00,meteohub,2013-09-23 19:32:00,
2013-09-23 14:37:00,84.9,76.1,29.80,East,80,6.0,9.0,75,0.00,,,0.00,meteohub,2013-09-23 19:37:00,
2013-09-23 14:42:00,84.7,75.6,29.80,East,92,2.0,9.0,74,0.00,,,0.00,meteohub,2013-09-23 19:42:00,
2013-09-23 14:47:00,85.3,75.6,29.80,East,91,2.0,8.0,73,0.00,,,0.00,meteohub,2013-09-23 19:47:00,
2013-09-23 14:52:00,85.3,76.1,29.80,ESE,114,5.0,8.0,74,0.00,,,0.00,meteohub,2013-09-23 19:52:00,
2013-09-23 14:57:00,85.3,76.1,29.80,East,80,8.0,10.0,74,0.00,,,0.00,meteohub,2013-09-23 19:57:00,
2013-09-23 15:02:00,85.3,76.1,29.80,East,96,3.0,10.0,74,0.00,,,0.00,meteohub,2013-09-23 20:02:00,
2013-09-23 15:07:00,85.3,75.6,29.79,ESE,107,4.0,10.0,73,0.00,,,0.00,meteohub,2013-09-23 20:07:00,
2013-09-23 15:12:00,85.3,76.5,29.79,ENE,74,5.0,10.0,75,0.00,,,0.00,meteohub,2013-09-23 20:12:00,
2013-09-23 15:17:00,85.5,76.3,29.79,East,98,6.0,10.0,74,0.00,,,0.00,meteohub,2013-09-23 20:17:00,
2013-09-23 15:22:00,85.6,76.5,29.79,ENE,73,5.0,11.0,74,0.00,,,0.00,meteohub,2013-09-23 20:22:00,
2013-09-23 15:27:00,85.6,75.9,29.79,ENE,69,4.0,12.0,73,0.00,,,0.00,meteohub,2013-09-23 20:27:00,
2013-09-23 15:32:00,86.4,76.3,29.79,ENE,76,10.0,12.0,72,0.00,,,0.00,meteohub,2013-09-23 20:32:00,
2013-09-23 15:37:00,85.6,76.5,29.79,East,79,3.0,14.0,74,0.00,,,0.00,meteohub,2013-09-23 20:37:00,
2013-09-23 15:42:00,85.5,76.3,29.78,East,87,6.0,14.0,74,0.00,,,0.00,meteohub,2013-09-23 20:42:00,
2013-09-23 15:47:00,85.3,76.1,29.78,East,97,6.0,14.0,74,0.00,,,0.00,meteohub,2013-09-23 20:47:00,
2013-09-23 15:52:00,85.6,76.5,29.78,ENE,71,9.0,10.0,74,0.00,,,0.00,meteohub,2013-09-23 20:52:00,
2013-09-23 15:57:00,85.5,76.6,29.79,ENE,69,4.0,10.0,75,0.00,,,0.00,meteohub,2013-09-23 20:57:00,
2013-09-23 16:02:00,85.5,76.6,29.79,ENE,66,2.0,10.0,75,0.00,,,0.00,meteohub,2013-09-23 21:02:00,
2013-09-23 16:07:00,85.5,76.6,29.79,East,82,5.0,10.0,75,0.00,,,0.00,meteohub,2013-09-23 21:07:00,
2013-09-23 16:12:00,85.5,76.6,29.79,East,96,8.0,12.0,75,0.00,,,0.00,meteohub,2013-09-23 21:12:00,
2013-09-23 16:17:00,85.5,76.3,29.79,ESE,104,7.0,12.0,74,0.00,,,0.00,meteohub,2013-09-23 21:17:00,
2013-09-23 16:22:00,85.3,76.5,29.79,East,88,6.0,12.0,75,0.00,,,0.00,meteohub,2013-09-23 21:22:00,
2013-09-23 16:27:00,85.1,76.6,29.79,East,83,6.0,11.0,76,0.00,,,0.00,meteohub,2013-09-23 21:27:00,
2013-09-23 16:32:00,84.9,76.5,29.79,East,94,8.0,10.0,76,0.00,,,0.00,meteohub,2013-09-23 21:32:00,
2013-09-23 16:37:00,84.2,77.0,29.80,SE,127,11.0,18.0,79,0.00,,,0.00,meteohub,2013-09-23 21:37:00,
2013-09-23 16:42:00,82.2,76.8,29.80,SE,126,12.0,18.0,84,0.00,,,0.00,meteohub,2013-09-23 21:42:00,
2013-09-23 16:47:00,80.8,76.5,29.80,SE,130,10.0,20.0,87,0.07,,,0.06,meteohub,2013-09-23 21:47:00,
2013-09-23 16:52:00,79.9,76.3,29.80,ESE,123,7.0,20.0,89,0.16,,,0.15,meteohub,2013-09-23 21:52:00,
2013-09-23 16:57:00,79.3,76.5,29.80,ESE,104,3.0,20.0,91,0.21,,,0.21,meteohub,2013-09-23 21:57:00,
2013-09-23 17:02:00,79.5,76.6,29.79,ESE,120,4.0,18.0,91,0.21,,,0.21,meteohub,2013-09-23 22:02:00,
2013-09-23 17:07:00,80.2,77.0,29.80,ESE,118,7.0,13.0,90,0.21,,,0.21,meteohub,2013-09-23 22:07:00,
2013-09-23 17:12:00,80.8,77.2,29.80,ESE,119,5.0,10.0,89,0.21,,,0.21,meteohub,2013-09-23 22:12:00,
2013-09-23 17:17:00,81.0,77.4,29.80,ESE,111,4.0,10.0,89,0.21,,,0.21,meteohub,2013-09-23 22:17:00,
2013-09-23 17:22:00,81.1,77.9,29.80,ESE,111,7.0,10.0,90,0.21,,,0.21,meteohub,2013-09-23 22:22:00,
2013-09-23 17:27:00,81.1,77.9,29.80,ESE,117,5.0,9.0,90,0.21,,,0.21,meteohub,2013-09-23 22:27:00,
2013-09-23 17:32:00,81.3,78.1,29.80,ESE,111,9.0,9.0,90,0.21,,,0.21,meteohub,2013-09-23 22:32:00,
2013-09-23 17:37:00,81.3,77.7,29.81,East,95,13.0,13.0,89,0.21,,,0.21,meteohub,2013-09-23 22:37:00,
2013-09-23 17:42:00,81.1,77.5,29.80,ESE,105,10.0,13.0,89,0.21,,,0.21,meteohub,2013-09-23 22:42:00,
2013-09-23 17:47:00,81.1,77.2,29.80,East,98,8.0,13.0,88,0.13,,,0.21,meteohub,2013-09-23 22:47:00,
2013-09-23 17:52:00,81.1,77.5,29.80,East,98,6.0,13.0,89,0.05,,,0.21,meteohub,2013-09-23 22:52:00,
2013-09-23 17:57:00,81.0,77.4,29.80,East,97,6.0,12.0,89,0.00,,,0.21,meteohub,2013-09-23 22:57:00,
2013-09-23 18:02:00,81.0,77.4,29.80,East,95,3.0,9.0,89,0.00,,,0.21,meteohub,2013-09-23 23:02:00,
2013-09-23 18:07:00,81.1,77.9,29.80,East,94,5.0,9.0,90,0.00,,,0.21,meteohub,2013-09-23 23:07:00,
2013-09-23 18:12:00,81.1,77.9,29.80,East,94,1.0,8.0,90,0.00,,,0.21,meteohub,2013-09-23 23:12:00,
2013-09-23 18:17:00,81.1,77.9,29.80,East,98,7.0,8.0,90,0.00,,,0.21,meteohub,2013-09-23 23:17:00,
2013-09-23 18:22:00,81.1,77.9,29.80,East,94,6.0,10.0,90,0.00,,,0.21,meteohub,2013-09-23 23:22:00,
2013-09-23 18:27:00,81.1,77.5,29.80,ESE,103,7.0,10.0,89,0.00,,,0.21,meteohub,2013-09-23 23:27:00,
2013-09-23 18:32:00,81.1,77.5,29.80,ESE,111,5.0,11.0,89,0.00,,,0.21,meteohub,2013-09-23 23:32:00,
2013-09-23 18:37:00,81.0,77.4,29.81,ESE,104,11.0,11.0,89,0.00,,,0.21,meteohub,2013-09-23 23:37:00,
2013-09-23 18:42:00,80.8,77.2,29.81,ESE,109,4.0,12.0,89,0.00,,,0.21,meteohub,2013-09-23 23:42:00,
2013-09-23 18:47:00,80.4,76.5,29.81,East,97,10.0,13.0,88,0.00,,,0.21,meteohub,2013-09-23 23:47:00,
2013-09-23 18:52:00,80.4,76.8,29.81,ESE,115,5.0,13.0,89,0.00,,,0.21,meteohub,2013-09-23 23:52:00,
2013-09-23 18:57:00,80.2,76.6,29.81,ESE,106,5.0,13.0,89,0.00,,,0.21,meteohub,2013-09-23 23:57:00,
2013-09-23 19:02:00,80.2,76.6,29.81,ESE,113,8.0,12.0,89,0.00,,,0.21,meteohub,2013-09-24 00:02:00,
2013-09-23 19:07:00,80.1,76.5,29.81,ESE,111,7.0,12.0,89,0.00,,,0.21,meteohub,2013-09-24 00:07:00,
2013-09-23 19:12:00,80.1,76.8,29.81,East,101,7.0,12.0,90,0.00,,,0.21,meteohub,2013-09-24 00:12:00,
2013-09-23 19:17:00,79.9,76.6,29.81,ESE,111,13.0,15.0,90,0.00,,,0.21,meteohub,2013-09-24 00:17:00,
2013-09-23 19:22:00,79.9,77.0,29.81,ESE,110,5.0,15.0,91,0.00,,,0.21,meteohub,2013-09-24 00:22:00,
2013-09-23 19:27:00,79.5,76.6,29.81,ESE,102,4.0,15.0,91,0.00,,,0.21,meteohub,2013-09-24 00:27:00,
2013-09-23 19:32:00,79.3,76.1,29.82,ESE,107,5.0,15.0,90,0.00,,,0.21,meteohub,2013-09-24 00:32:00,
2013-09-23 19:37:00,79.3,76.5,29.82,ESE,102,7.0,11.0,91,0.00,,,0.21,meteohub,2013-09-24 00:37:00,
2013-09-23 19:42:00,79.3,76.5,29.82,East,96,5.0,11.0,91,0.00,,,0.21,meteohub,2013-09-24 00:42:00,
2013-09-23 19:47:00,79.2,76.3,29.82,East,98,7.0,11.0,91,0.00,,,0.21,meteohub,2013-09-24 00:47:00,
2013-09-23 19:52:00,79.2,76.3,29.82,East,98,8.0,11.0,91,0.00,,,0.21,meteohub,2013-09-24 00:52:00,
2013-09-23 19:57:00,79.2,76.3,29.82,ESE,112,7.0,10.0,91,0.00,,,0.21,meteohub,2013-09-24 00:57:00,
2013-09-23 20:02:00,79.2,76.3,29.82,ESE,106,5.0,10.0,91,0.00,,,0.21,meteohub,2013-09-24 01:02:00,
2013-09-23 20:07:00,79.0,76.1,29.82,ESE,113,5.0,12.0,91,0.00,,,0.21,meteohub,2013-09-24 01:07:00,
2013-09-23 20:12:00,79.0,76.5,29.82,ESE,107,5.0,12.0,92,0.00,,,0.21,meteohub,2013-09-24 01:12:00,
2013-09-23 20:17:00,79.0,76.5,29.82,ESE,115,8.0,12.0,92,0.00,,,0.21,meteohub,2013-09-24 01:17:00,
2013-09-23 20:22:00,79.0,76.5,29.83,ESE,113,7.0,10.0,92,0.00,,,0.21,meteohub,2013-09-24 01:22:00,
2013-09-23 20:27:00,78.8,76.3,29.83,ESE,109,3.0,10.0,92,0.00,,,0.21,meteohub,2013-09-24 01:27:00,
2013-09-23 20:32:00,78.8,76.3,29.83,ESE,109,1.0,10.0,92,0.00,,,0.21,meteohub,2013-09-24 01:32:00,
2013-09-23 20:37:00,78.6,76.1,29.83,ESE,109,2.0,10.0,92,0.00,,,0.21,meteohub,2013-09-24 01:37:00,
2013-09-23 20:42:00,78.6,76.5,29.83,ESE,109,2.0,5.0,93,0.00,,,0.21,meteohub,2013-09-24 01:42:00,
2013-09-23 20:47:00,78.6,76.5,29.84,ESE,109,1.0,5.0,93,0.00,,,0.21,meteohub,2013-09-24 01:47:00,
2013-09-23 20:52:00,78.6,76.5,29.84,ESE,109,4.0,5.0,93,0.00,,,0.21,meteohub,2013-09-24 01:52:00,
2013-09-23 20:57:00,78.6,76.5,29.84,ESE,109,3.0,7.0,93,0.00,,,0.21,meteohub,2013-09-24 01:57:00,
2013-09-23 21:02:00,78.6,76.5,29.84,ESE,109,5.0,7.0,93,0.00,,,0.21,meteohub,2013-09-24 02:02:00,
2013-09-23 21:07:00,78.6,76.5,29.84,ESE,109,3.0,7.0,93,0.00,,,0.21,meteohub,2013-09-24 02:07:00,
2013-09-23 21:12:00,78.6,76.5,29.84,ESE,109,5.0,7.0,93,0.00,,,0.21,meteohub,2013-09-24 02:12:00,
2013-09-23 21:17:00,78.6,76.8,29.84,ESE,109,5.0,7.0,94,0.00,,,0.21,meteohub,2013-09-24 02:17:00,
2013-09-23 21:22:00,78.6,76.8,29.84,ESE,109,3.0,7.0,94,0.00,,,0.21,meteohub,2013-09-24 02:22:00,
2013-09-23 21:27:00,78.4,76.6,29.84,ESE,109,5.0,7.0,94,0.00,,,0.21,meteohub,2013-09-24 02:27:00,
2013-09-23 21:32:00,78.4,76.6,29.84,ESE,109,3.0,8.0,94,0.00,,,0.21,meteohub,2013-09-24 02:32:00,
2013-09-23 21:37:00,78.4,76.6,29.84,ESE,105,4.0,8.0,94,0.00,,,0.21,meteohub,2013-09-24 02:37:00,
2013-09-23 21:42:00,78.4,76.6,29.84,ESE,105,5.0,8.0,94,0.00,,,0.21,meteohub,2013-09-24 02:42:00,
2013-09-23 21:47:00,78.4,76.6,29.84,ESE,104,5.0,9.0,94,0.00,,,0.21,meteohub,2013-09-24 02:47:00,
2013-09-23 21:52:00,78.4,76.6,29.84,ESE,104,7.0,9.0,94,0.00,,,0.21,meteohub,2013-09-24 02:52:00,
2013-09-23 21:57:00,78.6,76.8,29.84,ESE,109,7.0,10.0,94,0.00,,,0.21,meteohub,2013-09-24 02:57:00,
2013-09-23 22:02:00,78.6,76.8,29.84,ESE,108,4.0,10.0,94,0.00,,,0.21,meteohub,2013-09-24 03:02:00,
2013-09-23 22:07:00,79.0,77.2,29.84,ESE,116,8.0,10.0,94,0.00,,,0.21,meteohub,2013-09-24 03:07:00,
2013-09-23 22:12:00,79.0,77.2,29.84,ESE,114,9.0,10.0,94,0.00,,,0.21,meteohub,2013-09-24 03:12:00,
2013-09-23 22:17:00,79.2,77.0,29.85,ESE,119,9.0,11.0,93,0.00,,,0.21,meteohub,2013-09-24 03:17:00,
2013-09-23 22:22:00,79.2,77.0,29.85,ESE,120,7.0,11.0,93,0.00,,,0.21,meteohub,2013-09-24 03:22:00,
2013-09-23 22:27:00,79.2,77.0,29.85,ESE,119,9.0,11.0,93,0.00,,,0.21,meteohub,2013-09-24 03:27:00,
2013-09-23 22:32:00,79.2,77.0,29.85,ESE,120,8.0,11.0,93,0.00,,,0.21,meteohub,2013-09-24 03:32:00,
2013-09-23 22:37:00,79.2,77.4,29.85,ESE,123,8.0,12.0,94,0.00,,,0.21,meteohub,2013-09-24 03:37:00,
2013-09-23 22:42:00,79.2,77.4,29.85,ESE,121,7.0,12.0,94,0.00,,,0.21,meteohub,2013-09-24 03:42:00,
2013-09-23 22:47:00,79.2,77.4,29.85,ESE,121,8.0,12.0,94,0.00,,,0.21,meteohub,2013-09-24 03:47:00,
2013-09-23 22:52:00,79.2,77.4,29.85,ESE,116,5.0,10.0,94,0.00,,,0.21,meteohub,2013-09-24 03:52:00,
2013-09-23 22:57:00,79.2,77.4,29.85,ESE,118,4.0,10.0,94,0.00,,,0.21,meteohub,2013-09-24 03:57:00,
2013-09-23 23:01:00,79.2,77.4,29.85,ESE,119,8.0,12.0,94,0.00,,,0.21,meteohub,2013-09-24 04:01:00,
2013-09-23 23:06:00,79.0,77.2,29.85,ESE,121,8.0,12.0,94,0.00,,,0.21,meteohub,2013-09-24 04:06:00,
2013-09-23 23:11:00,79.0,77.2,29.85,ESE,123,9.0,12.0,94,0.00,,,0.21,meteohub,2013-09-24 04:11:00,
2013-09-23 23:16:00,79.0,77.2,29.85,ESE,117,8.0,11.0,94,0.00,,,0.21,meteohub,2013-09-24 04:16:00,
2013-09-23 23:21:00,79.0,77.2,29.85,ESE,119,7.0,11.0,94,0.00,,,0.21,meteohub,2013-09-24 04:21:00,
2013-09-23 23:26:00,79.0,77.2,29.85,ESE,116,7.0,11.0,94,0.00,,,0.21,meteohub,2013-09-24 04:26:00,
2013-09-23 23:32:00,79.0,77.2,29.85,ESE,117,8.0,10.0,94,0.00,,,0.21,meteohub,2013-09-24 04:32:00,
2013-09-23 23:37:00,79.0,77.2,29.85,ESE,115,11.0,11.0,94,0.00,,,0.21,meteohub,2013-09-24 04:37:00,
2013-09-23 23:42:00,79.0,77.2,29.85,ESE,119,9.0,11.0,94,0.00,,,0.21,meteohub,2013-09-24 04:42:00,
2013-09-23 23:47:00,79.0,77.2,29.85,ESE,114,10.0,11.0,94,0.00,,,0.21,meteohub,2013-09-24 04:47:00,
2013-09-23 23:52:00,79.0,77.2,29.85,ESE,118,8.0,12.0,94,0.00,,,0.21,meteohub,2013-09-24 04:52:00,
2013-09-23 23:57:00,79.0,77.2,29.85,ESE,115,5.0,12.0,94,0.00,,,0.21,meteohub,2013-09-24 04:57:00,